Regional Weather Roundup
Issued by NWS

Home | Current Version | Previous Version | Text Only | Print | Product List | Glossary Off
Versions: 1 2 3 4 5 6 7 8 9 10 11 12 13 14 15 16 17 18 19 20 21 22 23 24 25 26 27 28 29 30 31 32 33 34 35 36 37 38 39 40 41 42 43 44 45 46 47 48 49 50

000
ASUS43 KOAX 310702
RWRNE

WEATHER ROUNDUP FOR NEBRASKA
NATIONAL WEATHER SERVICE OMAHA NE
200 AM CDT THU JUL 31 2014

NOTES: SATELLITE DATA IS BEING USED TO AUGMENT CLOUD COVER ABOVE
       12000 FEET.
       "FAIR" INDICATES FEW OR NO CLOUDS BELOW 12,000 FEET WITH NO
       SIGNIFICANT WEATHER AND/OR OBSTRUCTIONS TO VISIBILITY.

  * THESE STATIONS DO NOT REPORT WEATHER SUCH AS RAIN...SNOW OR FOG.

NEZ001>004-019>022-054>056-310800-
NEBRASKA PANHANDLE

CITY           SKY/WX    TMP DP  RH WIND       PRES   REMARKS
SCOTTSBLUFF    MOCLDY    61  58  90 NE6       30.22F
ALLIANCE       CLOUDY    57  55  93 W7        30.21S
CHADRON        CLOUDY    61  52  72 CALM      30.17S
KIMBALL        CLOUDY    59  57  94 W7        30.27S
SIDNEY         PTCLDY    58  56  93 W6        30.26F
$$

NEZ057>060-069>072-079>082-310800-
SOUTHWEST NEBRASKA

CITY           SKY/WX    TMP DP  RH WIND       PRES   REMARKS
NORTH PLATTE   PTCLDY    57  55  93 CALM      30.17F
IMPERIAL       PTCLDY    59  56  89 W7        30.22F
LEXINGTON      CLEAR     62  57  84 SW3       30.17S
MCCOOK         CLEAR     62  59  90 W7        30.19F
OGALLALA       PTCLDY    55  54  95 W5        30.21S
$$

NEZ005>010-023>029-035>040-094-310800-
NORTH CENTRAL NEBRASKA

CITY           SKY/WX    TMP DP  RH WIND       PRES   REMARKS
VALENTINE      CLEAR     61  52  72 SW8       30.09F
AINSWORTH      PTCLDY    64  53  67 S8        30.11F
BROKEN BOW     PTCLDY    56  54  93 CALM      30.15F
O`NEILL        CLEAR     64  59  85 SE6       30.13F
ORD            MOCLDY    64  58  80 SE3       30.13S
THEDFORD       MOCLDY    65  57  77 SW5       30.15F
$$

NEZ041-046>049-061>064-073>077-083>087-310800-
SOUTH CENTRAL NEBRASKA

CITY           SKY/WX    TMP DP  RH WIND       PRES   REMARKS
GRAND ISLAND   CLEAR     61  55  81 SW5       30.15F
AURORA         CLEAR     59  57  92 SW5       30.13F
HASTINGS       CLEAR     62  54  74 S3        30.15F
HEBRON         PTCLDY    56  52  86 CALM      30.14S
HOLDREGE       PTCLDY    62  54  73 CALM      30.16F
KEARNEY *      CLEAR     63  54  72 S8        30.16F
YORK           CLEAR     59  57  94 CALM      30.14F
$$

NEZ011>018-030>034-042>045-310800-
NORTHEAST NEBRASKA

CITY           SKY/WX    TMP DP  RH WIND       PRES   REMARKS
NORFOLK        CLEAR     59  54  83 SE5       30.12F
ALBION         PTCLDY    59  55  87 CALM      30.13F
BLAIR          CLEAR     65  52  62 CALM      30.12S
COLUMBUS *     CLEAR     57  52  82 CALM      30.13F
FREMONT        CLEAR     62  56  82 CALM      30.12F
TEKAMAH        CLEAR     58  53  84 CALM      30.11F
WAYNE          CLEAR     55  54  94 CALM      30.12F
$$

NEZ050>053-065>068-078-088>093-310800-
SOUTHEAST NEBRASKA

CITY           SKY/WX    TMP DP  RH WIND       PRES   REMARKS
LINCOLN        CLEAR     61  55  81 CALM      30.13F
OMAHA EPPLEY   PTCLDY    61  57  87 CALM      30.11F
BEATRICE       CLEAR     57  56  95 CALM      30.12F
FALLS CITY     CLEAR     60  56  86 CALM      30.10F
NEBRASKA CITY  CLEAR     63  54  72 S3        30.12S
PLATTSMOUTH    CLEAR     65  52  62 CALM      30.12F
$$

NEZ044-045-051>053-067-310800-
OMAHA AREA

CITY           SKY/WX    TMP DP  RH WIND       PRES   REMARKS
OMAHA EPPLEY   PTCLDY    61  57  87 CALM      30.11F
BLAIR          CLEAR     65  52  62 CALM      30.12S
FREMONT        CLEAR     62  56  82 CALM      30.12F
MILLARD        CLEAR     61  58  91 CALM      30.11F
OFFUTT AFB     CLEAR     55  55 100 CALM      30.11S
PLATTSMOUTH    CLEAR     65  52  62 CALM      30.12F
WAHOO          FAIR      58  55  89 CALM      30.12F
$$



USA.gov is the U.S. government's official web portal to all federal, state and local government web resources and services.